Regional Weather Roundup
Issued by NWS

Home | Current Version | Previous Version | Graphics & Text | Print | Product List | Glossary Off
Versions: 1 2 3 4 5 6 7 8 9 10 11 12 13 14 15 16 17 18 19 20 21 22 23 24 25 26 27 28 29 30 31 32 33 34 35 36 37 38 39 40 41 42 43 44 45 46 47 48 49 50

000
ASUS43 KMKX 080800
RWRWI

WISCONSIN REGIONAL WEATHER ROUNDUP
NATIONAL WEATHER SERVICE MILWAUKEE/SULLIVAN WI
200 AM CST THU DEC 08 2016

NOTE: "FAIR" INDICATES FEW OR NO CLOUDS BELOW 12,000 FEET WITH NO
SIGNIFICANT WEATHER AND/OR OBSTRUCTIONS TO VISIBILITY.

WIZ001-002-006>008-014>016-023>028-080900-
NORTHWEST WISCONSIN

CITY           SKY/WX    TMP DP  RH WIND       PRES   REMARKS
SUPERIOR ARPT  CLOUDY    23  19  87 W9        30.02R WCI  13
ASHLAND        LGT SNOW  19  16  88 SW12      29.97R FOG     WCI   7
HAYWARD        LGT SNOW  17  12  80 W6        29.99R WCI   9
SIREN          LGT SNOW  17  13  84 W9        30.06R WCI   6
CUMBERLAND     FLURRIES  14  10  85 W14       30.03S WCI  -1
RICE LAKE      LGT SNOW  16  12  85 W10       30.06S WCI   3
CHETEK         CLOUDY    15  11  82 W6        30.06R WCI   7
LADYSMITH      FLURRIES  16  11  83 W10       30.02S WCI   3
EAU CLAIRE     NOT AVBL
MENOMONIE      FLURRIES  17  12  81 W13G23    30.09S WCI   3
NEW RICHMOND   FLURRIES  15  10  81 W10G18    30.11R WCI   3
OSCEOLA        LGT SNOW  17  12  84 W10       30.14S WCI   4
$$

WIZ003>005-009-010-017-018-080900-
NORTH CENTRAL WISCONSIN

CITY           SKY/WX    TMP DP  RH WIND       PRES   REMARKS
MANITOWISH WTR LGT SNOW  15  12  90 W10       29.89R WCI   2
ARBOR VITAE    LGT SNOW  17  12  83 W8G16     29.90S WCI   6
WOODRUFF       LGT SNOW  17  12  83 W8G16     29.90S WCI   6
RHINELANDER    FLURRIES  14   9  80 W15G24    29.92R WCI  -1
EAGLE RIVER    LGT SNOW  15   9  79 W13       29.88S WCI   0
LAND O LAKES   LGT SNOW  15  11  83 W9        29.87F WCI   4
PHILLIPS       LGT SNOW  13  10  89 W6        29.94R WCI   4
TOMAHAWK       FLURRIES  12   8  82 W7        29.95R WCI   2
MEDFORD        LGT SNOW  13   9  83 W10G16    29.98R WCI   0
MERRILL        FLURRIES  14  10  81 W12       29.98R WCI   1
$$

WIZ029-030-035-036-043>047-080900-
CENTRAL WISCONSIN

CITY           SKY/WX    TMP DP  RH WIND       PRES   REMARKS
WAUSAU         FLURRIES  14   9  80 W17       29.99R WCI  -3
MOSINEE        FLURRIES  14  10  85 W15       30.01R WCI  -1
MARSHFIELD     FLURRIES  14   8  77 W17G25    30.02R WCI  -3
STEVENS POINT  FLURRIES  15   9  76 W17G24    30.03R WCI  -1
WAUPACA        FLURRIES  21  13  71 W13       30.04R WCI   9
WAUTOMA        FLURRIES  19  13  77 W13       30.07R WCI   6
WISC RAPIDS    FLURRIES  17  11  77 W15G21    30.06R WCI   2
CAMP DOUGLAS   NOT AVBL
$$

WIZ011>013-019>022-031-037>040-048>050-080900-
NORTHEAST WISCONSIN

CITY           SKY/WX    TMP DP  RH WIND       PRES   REMARKS
ANTIGO         FLURRIES  13   9  83 W15       29.94S WCI  -3
SHAWANO        FLURRIES  21  12  67 W9G20     30.01S WCI  11
OCONTO         NOT AVBL
STURGEON BAY   FLURRIES  21  12  68 W17G25    29.97R WCI   7
GREEN BAY      FLURRIES  23  13  65 W21G28    30.01S WCI   8
MANITOWOC      NOT AVBL
APPLETON       FLURRIES  21  12  68 W14G24    30.01R WCI   8
CLINTONVILLE   FLURRIES  21  12  68 W15G21    30.02R WCI   8
OSHKOSH        CLOUDY    21  12  68 W12       30.04R WCI   9
$$

WIZ032>034-041-042-053>061-080900-
SOUTHWEST WISCONSIN

CITY           SKY/WX    TMP DP  RH WIND       PRES   REMARKS
LA CROSSE      CLOUDY    18   8  65 W16G23    30.17R WCI   3
SPARTA         FLURRIES  17  11  78 W8        30.12S WCI   6
VIROQUA        CLOUDY    14  10  85 W15       30.11R WCI  -1
BOSCOBEL       CLOUDY    16   7  67 W10G24    30.20R WCI   4
PRAIRIE DU CHI CLOUDY    15   6  67 W15G22    30.22R WCI   0
PLATTEVILLE    PTCLDY    16  10  75 W24G38    30.17S WCI  -2
$$

WIZ056-057-062-063-064-067-068-080900-
SOUTH CENTRAL WISCONSIN

CITY           SKY/WX    TMP DP  RH WIND       PRES   REMARKS
REEDSBURG      CLOUDY    18  10  72 W14       30.10S WCI   4
BARABOO/DELLS  CLOUDY    18  10  69 W14G20    30.09S WCI   4
LONE ROCK      NOT AVBL
MINERAL POINT  FLURRIES  18  12  79 W15G23    30.13R WCI   3
MADISON        MOCLDY    19   9  65 MISG      30.11R
MIDDLETON      MOCLDY    20  12  69 W17G23    30.11S WCI   6
WATERTOWN      CLOUDY    20  13  73 W14       30.09S WCI   7
MONROE         LGT SNOW  21  16  79 W22G28    30.12R WCI   5
JANESVILLE     FLURRIES  23  14  68 W16G23    30.12R WCI  10
$$

WIZ051-052-058>065-066-070>072-080900-
SOUTHEAST WISCONSIN

CITY           SKY/WX    TMP DP  RH WIND       PRES   REMARKS
MILWAUKEE      FLURRIES  24  13  62 W9        30.09R WCI  14
WAUKESHA       CLOUDY    19  12  73 W17       30.08S WCI   4
MILWAUKEE/TIMM CLOUDY    21  10  63 W15G23    30.09R WCI   8
RACINE         FLURRIES  23  14  68 W9        30.11R WCI  13
BURLINGTON     CLOUDY    21  13  69 W20G26    30.11R WCI   6
KENOSHA        CLOUDY    22  13  68 W16G25    30.10R WCI   8
FOND DU LAC    CLOUDY    21  10  62 W12G23    30.05S WCI   9
SHEBOYGAN      CLOUDY    21  12  68 W15       30.04S WCI   8
WEST BEND      CLOUDY    21  14  73 W12G17    30.05S WCI   9
JUNEAU         CLOUDY    19  11  70 W12       30.08S WCI   6
$$

LSZ147-162-080900-
LAKE SUPERIOR

STATION/POSITION TIME  TEMP    WIND        PRES    WAVE
                       AIR SEA DIR/SP/G            HT/PER
                 (UTC) (F)     (DEG/KT/KT) (MB)    (FT/S)
DEVILS ISLAND    0600   26     300/ 19/ 22 1013.9R
PORT WING        0740   27     320/ 18/ 24 1015.6R
SAXON HARBOR     0730   20     230/  9/ 13 1014.2R
$$

LMZ867-665-643>646-080900-
LAKE MICHIGAN

STATION/POSITION TIME  TEMP    WIND        PRES    WAVE
                       AIR SEA DIR/SP/G            HT/PER
                 (UTC) (F)     (DEG/KT/KT) (MB)    (FT/S)
CHAMBERS ISLAND  0740   22     230/ 11/ 22 1013.5S
NORTHPORT PIER   0740   24     250/  6/ 16 1013.2S
SISTER BAY       0721   24     290/ 20/ 25   N/A
ALGOMA LAKESHORE 0721          260/ 14/ 18   N/A
KEWAUNEE LAKESHO 0730   22     330/ 12/ 21 1015.0S
SHEBOYGAN LAKESH 0600   22     260/ 14/ 18 1018.1S
PORT WASHINGTON  0730   22     270/ 10/ 16 1019.3S
MILWAUKEE LAKESH 0730   23     290/ 12/ 14   N/A
KENOSHA   LAKESH 0600   24     270/ 17/ 24 1019.3
$$

TC  - TEMPERATURE IN CELSIUS
VSB - VISIBILITY IN STATUTE MILES
WCI - WIND CHILL INDEX
HX  - HEAT INDEX





USA.gov is the U.S. government's official web portal to all federal, state and local government web resources and services.